User: anonymous   Login
Location: Unspecified
(47.8330°N, 0.0000°E)
Time: 19:23:47
(UTC+00:00)
Language:

AAUSAT CUBESAT 2 - Orbit

View from above orbital plane
View from above orbital plane
View from above satellite
View from above satellite

Ground track
Ground track

The orbit data is extracted from the following two-line orbital elements,

1 32788U 08021F   19202.18398306  .00000606  00000-0  60709-4 0  9999
2 32788  97.4959 216.4772 0013511  91.2229 269.0540 14.94749680609775
Epoch (UTC): 21 July 2019 04:24:56
Eccentricity: 0.0013511
inclination: 97.4959°
perigee height: 574 km
apogee height: 592 km
right ascension of ascending node: 216.4772°
argument of perigee: 91.2229°
revolutions per day: 14.94749680
mean anomaly at epoch: 269.0540°
orbit number at epoch: 60977

The dashed part of the orbit path shows where the satellite is in the earth's shadow,  

DLR